Location: Buffign�court
(47.8126°N, 6.0176°E)
Time: 20:07:30
(UTC+00:00)

Meteor 1-21 - Pass Details

Date: 16 June 2021
Orbit: 846 x 885 km, 81.2° (Epoch: 01 August)

Event Time Altitude Azimuth Distance (km) Brightness Sun altitude
Rises 20:06:42 0° 181° (S) 3,430 7.0 -4.7°
Reaches altitude 10° 20:09:09 10° 179° (S) 2,492 6.2 -4.9°
Maximum altitude 20:14:45 68° 97° (E) 920 4.3 -5.6°
Drops below altitude 10° 20:20:20 10° 16° (NNE) 2,488 7.1 -6.3°
Sets 20:22:46 0° 14° (NNE) 3,425 7.8 -6.6°
